GW6696 Weather Reports


time (UTC)temp
C
wind
direction
speed
KPH
gust
KPH
rain 1hr
cm
rain 24hr
cm
rain mn
cm
humidity
%
barometer
mb
20260503000005 34 110 14.5 20.9 0.00 0.00 0.00 21 1006.0
20260502235552 34 110 14.5 20.9 0.00 0.00 0.00 21 1006.0
20260502235101 34 107 16.1 24.1 0.00 0.00 0.00 20 1006.1
20260502234504 34 109 16.1 25.7 0.00 0.00 0.00 23 1006.2
20260502234005 35 105 17.7 25.7 0.00 0.00 0.00 20 1006.2
20260502233506 35 108 17.7 25.7 0.00 0.00 0.00 20 1006.3
20260502233005 34 111 16.1 24.1 0.00 0.00 0.00 21 1006.3
20260502232530 34 111 16.1 24.1 0.00 0.00 0.00 21 1006.3
20260502232056 35 104 19.3 27.4 0.00 0.00 0.00 18 1006.3
20260502231504 34 110 16.1 27.4 0.00 0.00 0.00 19 1006.4
20260502231024 34 110 16.1 27.4 0.00 0.00 0.00 19 1006.4
20260502230506 35 101 16.1 24.1 0.00 0.00 0.00 20 1006.6
20260502230004 34 97 14.5 22.5 0.00 0.00 0.00 21 1006.7
20260502225547 34 97 14.5 22.5 0.00 0.00 0.00 21 1006.7
20260502225100 34 103 16.1 22.5 0.00 0.00 0.00 21 1006.8
20260502224506 35 103 14.5 20.9 0.00 0.00 0.00 20 1007.0
20260502224004 35 105 14.5 20.9 0.00 0.00 0.00 21 1007.0
20260502223529 35 105 14.5 20.9 0.00 0.00 0.00 21 1007.0
20260502223012 35 104 14.5 19.3 0.00 0.00 0.00 20 1007.1
20260502222625 35 104 12.9 17.7 0.00 0.00 0.00 21 1007.2
20260502222103 34 102 12.9 19.3 0.00 0.00 0.00 20 1007.2
20260502221504 33 108 12.9 17.7 0.00 0.00 0.00 20 1007.5
20260502221047 33 108 12.9 17.7 0.00 0.00 0.00 20 1007.5
20260502220511 33 106 12.9 17.7 0.00 0.00 0.00 21 1007.7
20260502220004 33 104 14.5 20.9 0.00 0.00 0.00 21 1007.8
20260502215531 33 104 14.5 20.9 0.00 0.00 0.00 21 1007.8
20260502215032 33 102 14.5 19.3 0.00 0.00 0.00 20 1007.9
20260502214504 33 88 14.5 19.3 0.00 0.00 0.00 20 1007.9
20260502214028 33 88 14.5 19.3 0.00 0.00 0.00 20 1007.9
20260502213506 33 98 12.9 17.7 0.00 0.00 0.00 19 1008.1
20260502213005 33 99 12.9 19.3 0.00 0.00 0.00 18 1008.3
20260502212620 33 99 12.9 19.3 0.00 0.00 0.00 18 1008.3
20260502212056 33 104 14.5 20.9 0.00 0.00 0.00 19 1008.2
20260502211505 33 105 16.1 20.9 0.00 0.00 0.00 18 1008.5
20260502211048 33 105 16.1 20.9 0.00 0.00 0.00 18 1008.5
20260502210509 33 106 16.1 20.9 0.00 0.00 0.00 18 1008.5
20260502210027 33 104 14.5 22.5 0.00 0.00 0.00 19 1008.7
20260502205551 33 104 14.5 22.5 0.00 0.00 0.00 19 1008.7
20260502205058 34 104 16.1 20.9 0.00 0.00 0.00 17 1008.8
20260502204506 34 99 12.9 19.3 0.00 0.00 0.00 21 1008.8
20260502204027 34 96 12.9 19.3 0.00 0.00 0.00 20 1009.0
20260502203507 34 96 12.9 19.3 0.00 0.00 0.00 20 1009.0
20260502203028 33 99 14.5 17.7 0.00 0.00 0.00 21 1009.1
20260502202549 33 99 14.5 17.7 0.00 0.00 0.00 21 1009.1
20260502202034 33 100 14.5 19.3 0.00 0.00 0.00 24 1009.2
20260502201508 32 97 12.9 19.3 0.00 0.00 0.00 27 1009.2
20260502201026 33 98 12.9 19.3 0.00 0.00 0.00 24 1009.4
20260502200531 33 96 11.3 19.3 0.00 0.00 0.00 22 1009.4
20260502200015 33 96 12.9 17.7 0.00 0.00 0.00 20 1009.5
20260502195604 33 91 11.3 17.7 0.00 0.00 0.00 23 1009.5
20260502195104 33 95 12.9 16.1 0.00 0.00 0.00 17 1009.6
20260502194506 33 103 9.7 12.9 0.00 0.00 0.00 26 1009.7
20260502194006 33 99 8.0 11.3 0.00 0.00 0.00 27 1009.7
20260502193526 33 99 8.0 11.3 0.00 0.00 0.00 27 1009.7
20260502193028 32 104 9.7 12.9 0.00 0.00 0.00 29 1009.7
20260502192608 32 91 9.7 12.9 0.00 0.00 0.00 32 1009.8
20260502192054 32 88 8.0 12.9 0.00 0.00 0.00 33 1009.8
20260502191505 33 75 4.8 8.0 0.00 0.00 0.00 16 1009.9
20260502191046 33 75 4.8 8.0 0.00 0.00 0.00 16 1009.9
20260502190507 33 62 4.8 8.0 0.00 0.00 0.00 17 1009.9
20260502190007 33 62 8.0 12.9 0.00 0.00 0.00 21 1010.0
20260502185559 33 62 8.0 12.9 0.00 0.00 0.00 21 1010.0
20260502185102 33 92 6.4 14.5 0.00 0.00 0.00 16 1010.1
20260502184507 33 106 4.8 8.0 0.00 0.00 0.00 16 1010.3
20260502184006 32 86 6.4 11.3 0.00 0.00 0.00 19 1010.4
20260502183528 32 87 6.4 9.7 0.00 0.00 0.00 18 1010.4
20260502183009 32 87 8.0 9.7 0.00 0.00 0.00 18 1010.3
20260502182604 32 87 8.0 9.7 0.00 0.00 0.00 18 1010.3
20260502182101 32 89 8.0 9.7 0.00 0.00 0.00 23 1010.4
20260502181506 32 92 6.4 11.3 0.00 0.00 0.00 28 1010.5
20260502181025 32 92 6.4 11.3 0.00 0.00 0.00 28 1010.5
20260502180530 31 82 6.4 8.0 0.00 0.00 0.00 29 1010.6
20260502170510 27 75 11.3 14.5 0.00 0.00 0.00 44 1010.8
20260502164007 28 16 12.9 16.1 0.00 0.00 0.00 34 1010.8
20260502163507 28 9 12.9 17.7 0.00 0.00 0.00 34 1010.9
20260502163033 28 9 12.9 17.7 0.00 0.00 0.00 34 1010.9
20260502162641 28 8 14.5 19.3 0.00 0.00 0.00 36 1010.9
20260502162104 27 12 14.5 19.3 0.00 0.00 0.00 39 1010.9
20260502161527 27 7 14.5 19.3 0.00 0.00 0.00 40 1010.8
20260502161027 27 7 14.5 19.3 0.00 0.00 0.00 40 1010.8
20260502160506 27 5 14.5 19.3 0.00 0.00 0.00 42 1010.9
20260502152107 25 356 17.7 24.1 0.00 0.00 0.00 45 1010.7
20260502151506 25 354 16.1 22.5 0.00 0.00 0.00 47 1010.6
20260502151026 25 354 16.1 22.5 0.00 0.00 0.00 47 1010.6
20260502150507 24 4 17.7 22.5 0.00 0.00 0.00 49 1010.6
20260502130510 22 347 16.1 17.7 0.00 0.00 0.00 51 1009.7
20260502123538 23 342 19.3 24.1 0.00 0.00 0.00 44 1009.5
20260502123107 23 344 19.3 22.5 0.00 0.00 0.00 44 1009.4
20260502122645 23 339 19.3 24.1 0.00 0.00 0.00 44 1009.3
20260502122135 23 341 19.3 22.5 0.00 0.00 0.00 44 1009.3
20260502121507 23 343 19.3 24.1 0.00 0.00 0.00 43 1009.2
20260502121050 23 343 19.3 24.1 0.00 0.00 0.00 43 1009.2
20260502120531 23 347 17.7 24.1 0.00 0.00 0.00 44 1009.2
20260502115641 23 342 17.7 22.5 0.00 0.00 0.00 42 1009.2
20260502115120 23 338 17.7 20.9 0.00 0.00 0.00 43 1009.1
20260502114529 23 341 16.1 20.9 0.00 0.00 0.00 43 1009.1
20260502114006 23 345 14.5 17.7 0.00 0.00 0.00 44 1009.2
20260502113548 23 345 14.5 17.7 0.00 0.00 0.00 44 1009.2
20260502113112 23 341 14.5 17.7 0.00 0.00 0.00 44 1009.2
20260502112654 24 346 14.5 19.3 0.00 0.00 0.00 43 1009.2
20260502112138 24 346 16.1 20.9 0.00 0.00 0.00 42 1009.2
20260502111527 24 348 14.5 20.9 0.00 0.00 0.00 41 1009.2
20260502111111 24 346 14.5 19.3 0.00 0.00 0.00 42 1009.2
20260502110656 25 343 16.1 20.9 0.00 0.00 0.00 40 1009.1
20260502110119 25 349 16.1 20.9 0.00 0.00 0.00 39 1009.0
20260502105638 25 343 17.7 22.5 0.00 0.00 0.00 39 1009.0
20260502105122 25 350 16.1 22.5 0.00 0.00 0.00 40 1009.0
20260502104527 25 343 17.7 25.7 0.00 0.00 0.00 39 1008.9
20260502104026 25 337 19.3 24.1 0.00 0.00 0.00 41 1008.9
20260502103528 25 344 14.5 19.3 0.00 0.00 0.00 41 1008.9
20260502103058 25 351 16.1 22.5 0.00 0.00 0.00 43 1008.8
20260502102659 25 353 19.3 25.7 0.00 0.00 0.00 44 1008.8
20260502102123 25 351 19.3 24.1 0.00 0.00 0.00 43 1008.9
20260502101514 25 334 24.1 32.2 0.00 0.00 0.00 40 1008.8
20260502101051 24 336 17.7 24.1 0.00 0.00 0.00 43 1008.8
20260502100515 24 332 19.3 25.7 0.00 0.00 0.00 42 1008.8
20260502091508 26 360 17.7 22.5 0.00 0.00 0.00 42 1008.7
20260502091026 26 360 17.7 22.5 0.00 0.00 0.00 42 1008.7
20260502090538 27 355 12.9 16.1 0.00 0.00 0.00 34 1008.7
20260502071237 28 331 20.9 29.0 0.00 0.00 0.00 32 1008.6
20260502070708 28 336 20.9 25.7 0.00 0.00 0.00 31 1008.6
20260502070006 28 328 20.9 30.6 0.00 0.00 0.00 30 1008.5
20260502065513 28 328 20.9 30.6 0.00 0.00 0.00 30 1008.5
20260502065025 28 332 19.3 25.7 0.00 0.00 0.00 30 1008.5
20260502064505 28 327 20.9 25.7 0.00 0.00 0.00 29 1008.4
20260502064007 28 331 20.9 29.0 0.00 0.00 0.00 28 1008.4
20260502063553 28 331 20.9 29.0 0.00 0.00 0.00 28 1008.4
20260502063133 28 331 22.5 27.4 0.00 0.00 0.00 28 1008.4
20260502062806 28 327 20.9 27.4 0.00 0.00 0.00 28 1008.4
20260502062250 28 327 20.9 29.0 0.00 0.00 0.00 28 1008.4
20260502061321 28 328 17.7 24.1 0.00 0.00 0.00 27 1008.4
20260502060458 28 325 19.3 25.7 0.00 0.00 0.00 27 1008.3
20260502055752 28 329 17.7 22.5 0.00 0.00 0.00 27 1008.4
20260502054857 28 330 20.9 25.7 0.00 0.00 0.00 27 1008.3
20260502054041 28 332 19.3 25.7 0.00 0.00 0.00 27 1008.4
20260502053350 28 331 17.7 22.5 0.00 0.00 0.00 27 1008.3
20260502052543 28 335 17.7 22.5 0.00 0.00 0.00 27 1008.3
20260502051557 29 333 19.3 24.1 0.00 0.00 0.00 26 1008.2
20260502050848 30 339 19.3 25.7 0.00 0.00 0.00 25 1008.2
20260502050018 31 330 22.5 30.6 0.00 0.00 0.00 24 1008.1
20260502045355 30 325 19.3 24.1 0.00 0.00 0.00 24 1008.1
20260502044610 30 327 16.1 20.9 0.00 0.00 0.00 25 1008.1
20260502044006 30 316 19.3 24.1 0.00 0.00 0.00 28 1008.0
20260502043439 28 313 19.3 25.7 0.00 0.00 0.00 33 1007.9
20260502042812 28 320 20.9 27.4 0.00 0.00 0.00 35 1007.8
20260502042038 29 326 25.7 33.8 0.00 0.00 0.00 35 1007.6
20260502041206 31 330 19.3 25.7 0.00 0.00 0.00 28 1007.3
20260502040559 30 317 19.3 30.6 0.00 0.00 0.00 30 1007.2
20260502040007 30 337 14.5 20.9 0.00 0.00 0.00 32 1007.1
20260502035545 30 337 14.5 20.9 0.00 0.00 0.00 32 1007.1
20260502035042 30 293 12.9 25.7 0.00 0.00 0.00 30 1006.9
20260502034528 30 117 8.0 11.3 0.00 0.00 0.00 29 1006.7
20260502034008 30 117 8.0 11.3 0.00 0.00 0.00 29 1006.7
20260502033508 30 118 6.4 9.7 0.00 0.00 0.00 29 1006.6
20260502033006 32 133 3.2 6.4 0.00 0.00 0.00 21 1006.4
20260502032533 32 133 3.2 6.4 0.00 0.00 0.00 21 1006.4
20260502032044 32 147 4.8 8.0 0.00 0.00 0.00 21 1006.4
20260502031508 32 147 6.4 8.0 0.00 0.00 0.00 20 1006.3
20260502031027 31 144 6.4 9.7 0.00 0.00 0.00 21 1006.2
20260502030536 32 141 8.0 11.3 0.00 0.00 0.00 21 1006.1
20260502030007 32 145 8.0 9.7 0.00 0.00 0.00 21 1006.0
20260502025543 32 145 8.0 9.7 0.00 0.00 0.00 21 1006.0
20260502025033 32 141 8.0 11.3 0.00 0.00 0.00 22 1005.9
20260502024528 32 140 8.0 11.3 0.00 0.00 0.00 23 1005.9
20260502024028 32 136 8.0 11.3 0.00 0.00 0.00 24 1005.9
20260502023507 32 125 9.7 12.9 0.00 0.00 0.00 23 1005.9
20260502023007 33 114 8.0 12.9 0.00 0.00 0.00 21 1005.9
20260502022540 33 114 8.0 12.9 0.00 0.00 0.00 21 1005.9
20260502022049 33 131 8.0 11.3 0.00 0.00 0.00 19 1005.8
20260502021510 33 134 9.7 12.9 0.00 0.00 0.00 19 1005.8
20260502021048 33 139 8.0 14.5 0.00 0.00 0.00 19 1005.8
20260502020510 33 139 9.7 12.9 0.00 0.00 0.00 19 1005.8
20260502020008 33 137 8.0 12.9 0.00 0.00 0.00 19 1005.8
20260502015549 33 137 8.0 12.9 0.00 0.00 0.00 19 1005.8
20260502015036 33 131 6.4 9.7 0.00 0.00 0.00 19 1005.8
20260502014527 33 133 8.0 12.9 0.00 0.00 0.00 21 1005.8
20260502014007 33 133 8.0 12.9 0.00 0.00 0.00 21 1005.8
20260502013508 33 138 9.7 17.7 0.00 0.00 0.00 21 1005.8
20260502013007 32 129 8.0 12.9 0.00 0.00 0.00 32 1005.8
20260502012534 32 129 8.0 12.9 0.00 0.00 0.00 32 1005.8
20260502012034 31 121 11.3 16.1 0.00 0.00 0.00 34 1005.8
20260502011508 31 119 12.9 19.3 0.00 0.00 0.00 35 1005.8
20260502011028 31 117 12.9 19.3 0.00 0.00 0.00 38 1005.8
20260502010510 30 114 14.5 20.9 0.00 0.00 0.00 45 1005.8
20260502010006 33 109 12.9 22.5 0.00 0.00 0.00 35 1005.8
20260502005520 33 109 12.9 22.5 0.00 0.00 0.00 35 1005.8
20260502005027 33 109 11.3 14.5 0.00 0.00 0.00 22 1005.8
20260502004507 33 101 9.7 14.5 0.00 0.00 0.00 29 1005.8
20260502004007 32 99 11.3 16.1 0.00 0.00 0.00 30 1005.8
20260502003508 32 99 11.3 16.1 0.00 0.00 0.00 30 1005.8
20260502003035 32 95 9.7 14.5 0.00 0.00 0.00 34 1005.9
20260502002621 33 96 9.7 14.5 0.00 0.00 0.00 31 1005.9
20260502002107 33 109 11.3 14.5 0.00 0.00 0.00 26 1005.9
20260502001507 32 120 11.3 16.1 0.00 0.00 0.00 31 1006.0
20260502001027 32 120 11.3 16.1 0.00 0.00 0.00 31 1006.0
20260502000510 32 115 12.9 19.3 0.00 0.00 0.00 33 1006.1